Tracking 18851 objects as of 25-Nov-2017
HD Live streaming from Space Station
objects crossing your sky now

FENGYUN 1C DEB

Track FENGYUN 1C DEB now!
10-day predictions


NORAD ID: 30744
Int'l Code: 1999-025ATE
Perigee: 785.4 km
Apogee: 812.3 km
Inclination: 98.8 °
Period: 100.7 minutes
Semi major axis: 7169 km
RCS: 0.029 m2 (small)
Launch date: May 10, 1999
Source: People's Republic of China (PRC)
Launch site: Taiyaun Space Center, China (TSC)

Note: This is SATELLITE DEBRIS
aabbcc
Your satellite tracking list
Your tracking list is empty




NASA's NSSDC Master Catalog

Two Line Element Set (TLE):
1 30744U 99025ATE 17328.63484617 +.00001209 +00000-0 +48557-3 0  9997
2 30744 098.8442 002.5734 0018771 029.1060 091.3095 14.29998324557711
Source of the keplerian elements: AFSPC